Time,TemperatureF,DewpointF,PressureIn,WindDirection,WindDirectionDegrees,WindSpeedMPH,WindSpeedGustMPH,Humidity,HourlyPrecipIn,Conditions,Clouds,dailyrainin,SoftwareType,DateUTC
2013-01-11 00:05:00,33.4,19.4,29.96,North,0,0.0,0.0,56,0.00,CLR,,0.00,WeatherDisplay:10.37,2013-01-11 08:05:00,
2013-01-11 00:10:00,33.4,19.4,29.96,North,0,0.0,0.0,56,0.00,CLR,,0.00,WeatherDisplay:10.37,2013-01-11 08:10:00,
2013-01-11 00:20:00,33.1,19.1,29.96,North,0,0.0,0.0,56,0.00,CLR,,0.00,WeatherDisplay:10.37,2013-01-11 08:20:00,
2013-01-11 00:25:00,32.7,18.7,29.96,North,0,0.0,0.0,56,0.00,CLR,,0.00,WeatherDisplay:10.37,2013-01-11 08:25:00,
2013-01-11 00:35:00,32.0,18.9,29.96,North,0,0.0,0.0,58,0.00,CLR,,0.00,WeatherDisplay:10.37,2013-01-11 08:35:00,
2013-01-11 00:40:00,31.6,18.9,29.96,North,0,0.0,0.0,59,0.00,CLR,,0.00,WeatherDisplay:10.37,2013-01-11 08:40:00,
2013-01-11 00:50:00,31.3,18.6,29.97,North,0,0.0,0.0,59,0.00,CLR,,0.00,WeatherDisplay:10.37,2013-01-11 08:50:00,
2013-01-11 00:55:00,31.3,19.0,29.97,North,0,0.0,0.0,60,0.00,CLR,,0.00,WeatherDisplay:10.37,2013-01-11 08:55:00,
2013-01-11 01:05:00,31.5,18.8,29.97,North,0,0.0,0.0,59,0.00,CLR,,0.00,WeatherDisplay:10.37,2013-01-11 09:05:00,
2013-01-11 01:10:00,31.3,18.6,29.98,North,0,0.0,0.0,59,0.00,CLR,,0.00,WeatherDisplay:10.37,2013-01-11 09:10:00,
2013-01-11 01:20:00,30.6,18.7,29.99,North,0,0.0,0.0,61,0.00,CLR,,0.00,WeatherDisplay:10.37,2013-01-11 09:20:00,
2013-01-11 01:25:00,30.6,18.7,29.98,North,0,0.0,0.0,61,0.00,CLR,,0.00,WeatherDisplay:10.37,2013-01-11 09:25:00,
2013-01-11 01:35:00,30.6,19.1,29.98,North,0,0.0,0.0,62,0.00,CLR,,0.00,WeatherDisplay:10.37,2013-01-11 09:35:00,
2013-01-11 01:40:00,30.3,18.8,29.98,North,0,0.0,0.0,62,0.00,CLR,,0.00,WeatherDisplay:10.37,2013-01-11 09:40:00,
2013-01-11 01:50:00,30.6,19.8,29.98,North,0,0.0,0.0,64,0.00,CLR,,0.00,WeatherDisplay:10.37,2013-01-11 09:50:00,
2013-01-11 01:55:00,30.6,19.5,29.98,North,0,0.0,0.0,63,0.00,CLR,,0.00,WeatherDisplay:10.37,2013-01-11 09:55:00,
2013-01-11 02:05:00,31.3,19.8,29.98,North,0,0.0,0.0,62,0.00,CLR,,0.00,WeatherDisplay:10.37,2013-01-11 10:05:00,
2013-01-11 02:10:00,31.2,19.7,29.98,North,0,0.0,0.0,62,0.00,CLR,,0.00,WeatherDisplay:10.37,2013-01-11 10:10:00,
2013-01-11 02:20:00,31.0,19.1,29.98,North,0,0.0,0.0,61,0.00,CLR,,0.00,WeatherDisplay:10.37,2013-01-11 10:20:00,
2013-01-11 02:35:00,32.0,18.5,29.98,North,0,0.0,0.0,57,0.00,CLR,,0.00,WeatherDisplay:10.37,2013-01-11 10:35:00,
2013-01-11 02:40:00,31.8,18.7,29.98,North,0,0.0,0.0,58,0.00,CLR,,0.00,WeatherDisplay:10.37,2013-01-11 10:40:00,
2013-01-11 02:50:00,31.5,18.8,29.98,North,0,0.0,0.0,59,0.00,CLR,,0.00,WeatherDisplay:10.37,2013-01-11 10:50:00,
2013-01-11 02:55:00,31.4,19.1,29.98,North,0,0.0,0.0,60,0.00,CLR,,0.00,WeatherDisplay:10.37,2013-01-11 10:55:00,
2013-01-11 03:05:00,31.3,18.6,29.98,North,0,0.0,0.0,59,0.00,CLR,,0.00,WeatherDisplay:10.37,2013-01-11 11:05:00,
2013-01-11 03:10:00,31.5,18.8,29.99,North,0,0.0,0.0,59,0.00,CLR,,0.00,WeatherDisplay:10.37,2013-01-11 11:10:00,
2013-01-11 03:20:00,31.1,19.2,29.99,North,0,0.0,0.0,61,0.00,CLR,,0.00,WeatherDisplay:10.37,2013-01-11 11:20:00,
2013-01-11 03:25:00,31.3,19.0,29.99,North,0,0.0,0.0,60,0.00,CLR,,0.00,WeatherDisplay:10.37,2013-01-11 11:25:00,
2013-01-11 03:35:00,31.6,18.5,29.98,North,0,0.0,0.0,58,0.00,CLR,,0.00,WeatherDisplay:10.37,2013-01-11 11:35:00,
2013-01-11 03:40:00,31.8,18.7,29.98,North,0,0.0,0.0,58,0.00,CLR,,0.00,WeatherDisplay:10.37,2013-01-11 11:40:00,
2013-01-11 03:50:00,32.2,18.6,29.99,North,0,0.0,0.0,57,0.00,CLR,,0.00,WeatherDisplay:10.37,2013-01-11 11:50:00,
2013-01-11 03:55:00,32.0,18.5,29.99,North,0,0.0,0.0,57,0.00,CLR,,0.00,WeatherDisplay:10.37,2013-01-11 11:55:00,
2013-01-11 04:05:00,31.8,18.7,29.99,North,0,0.0,0.0,58,0.00,CLR,,0.00,WeatherDisplay:10.37,2013-01-11 12:05:00,
2013-01-11 04:10:00,31.3,18.6,29.99,North,0,0.0,0.0,59,0.00,CLR,,0.00,WeatherDisplay:10.37,2013-01-11 12:10:00,
2013-01-11 04:20:00,31.8,18.3,29.99,North,0,0.0,0.0,57,0.00,CLR,,0.00,WeatherDisplay:10.37,2013-01-11 12:20:00,
2013-01-11 04:25:00,32.0,18.1,29.99,North,0,0.0,0.0,56,0.00,CLR,,0.00,WeatherDisplay:10.37,2013-01-11 12:25:00,
2013-01-11 04:35:00,32.0,18.1,29.99,North,0,0.0,0.0,56,0.00,CLR,,0.00,WeatherDisplay:10.37,2013-01-11 12:35:00,
2013-01-11 04:40:00,32.0,18.1,29.99,North,0,0.0,0.0,56,0.00,CLR,,0.00,WeatherDisplay:10.37,2013-01-11 12:40:00,
2013-01-11 04:50:00,32.1,18.1,29.99,North,0,0.0,0.0,56,0.00,CLR,,0.00,WeatherDisplay:10.37,2013-01-11 12:50:00,
2013-01-11 04:55:00,32.1,18.2,30.00,North,0,0.0,0.0,56,0.00,CLR,,0.00,WeatherDisplay:10.37,2013-01-11 12:55:00,
2013-01-11 05:05:00,32.0,18.1,30.00,North,0,0.0,0.0,56,0.00,CLR,,0.00,WeatherDisplay:10.37,2013-01-11 13:05:00,
2013-01-11 05:10:00,32.0,18.1,30.00,North,0,0.0,0.0,56,0.00,CLR,,0.00,WeatherDisplay:10.37,2013-01-11 13:10:00,
2013-01-11 05:20:00,31.6,18.1,30.00,North,0,0.0,0.0,57,0.00,CLR,,0.00,WeatherDisplay:10.37,2013-01-11 13:20:00,
2013-01-11 05:25:00,31.6,17.7,30.00,North,0,0.0,0.0,56,0.00,CLR,,0.00,WeatherDisplay:10.37,2013-01-11 13:25:00,
2013-01-11 05:35:00,32.0,17.2,30.01,North,0,0.0,0.0,54,0.00,CLR,,0.00,WeatherDisplay:10.37,2013-01-11 13:35:00,
2013-01-11 05:40:00,31.3,17.9,30.01,North,0,0.0,0.0,57,0.00,CLR,,0.00,WeatherDisplay:10.37,2013-01-11 13:40:00,
2013-01-11 05:50:00,30.9,17.9,30.01,North,0,0.0,0.0,58,0.00,CLR,,0.00,WeatherDisplay:10.37,2013-01-11 13:50:00,
2013-01-11 05:55:00,30.7,18.0,30.01,North,0,0.0,0.0,59,0.00,CLR,,0.00,WeatherDisplay:10.37,2013-01-11 13:55:00,
2013-01-11 06:05:00,30.2,18.0,30.01,North,0,0.0,0.0,60,0.00,CLR,,0.00,WeatherDisplay:10.37,2013-01-11 14:05:00,
2013-01-11 06:10:00,30.5,17.9,30.01,North,0,0.0,0.0,59,0.00,CLR,,0.00,WeatherDisplay:10.37,2013-01-11 14:10:00,
2013-01-11 06:20:00,30.2,18.0,30.02,North,0,0.0,0.0,60,0.00,CLR,,0.00,WeatherDisplay:10.37,2013-01-11 14:20:00,
2013-01-11 06:25:00,30.0,18.2,30.02,North,0,0.0,0.0,61,0.00,CLR,,0.00,WeatherDisplay:10.37,2013-01-11 14:25:00,
2013-01-11 06:35:00,29.4,18.0,30.03,North,0,0.0,0.0,62,0.00,CLR,,0.00,WeatherDisplay:10.37,2013-01-11 14:35:00,
2013-01-11 06:40:00,29.1,18.1,30.02,North,0,0.0,0.0,63,0.00,CLR,,0.00,WeatherDisplay:10.37,2013-01-11 14:40:00,
2013-01-11 06:50:00,28.9,18.6,30.03,North,0,0.0,0.0,65,0.00,CLR,,0.00,WeatherDisplay:10.37,2013-01-11 14:50:00,
2013-01-11 06:55:00,28.9,18.6,30.03,North,0,0.0,0.0,65,0.00,CLR,,0.00,WeatherDisplay:10.37,2013-01-11 14:55:00,
2013-01-11 07:05:00,28.9,19.0,30.03,North,0,0.0,0.0,66,0.00,CLR,,0.00,WeatherDisplay:10.37,2013-01-11 15:05:00,
2013-01-11 07:10:00,29.1,19.2,30.03,North,0,0.0,0.0,66,0.00,CLR,,0.00,WeatherDisplay:10.37,2013-01-11 15:10:00,
2013-01-11 07:20:00,30.0,20.0,30.03,North,0,0.0,0.0,66,0.00,CLR,,0.00,WeatherDisplay:10.37,2013-01-11 15:20:00,
2013-01-11 07:25:00,30.4,20.4,30.03,North,0,0.0,0.0,66,0.00,CLR,,0.00,WeatherDisplay:10.37,2013-01-11 15:25:00,
2013-01-11 07:35:00,30.7,20.7,30.04,North,0,0.0,0.0,66,0.00,CLR,,0.00,WeatherDisplay:10.37,2013-01-11 15:35:00,
2013-01-11 07:40:00,30.9,20.9,30.04,North,0,0.0,0.0,66,0.00,CLR,,0.00,WeatherDisplay:10.37,2013-01-11 15:40:00,
2013-01-11 07:50:00,31.3,21.2,30.04,North,0,0.0,0.0,66,0.00,CLR,,0.00,WeatherDisplay:10.37,2013-01-11 15:50:00,
2013-01-11 07:55:00,31.5,21.5,30.04,North,0,0.0,0.0,66,0.00,CLR,,0.00,WeatherDisplay:10.37,2013-01-11 15:55:00,
2013-01-11 08:05:00,32.4,21.9,30.05,North,0,0.0,0.0,65,0.00,CLR,,0.00,WeatherDisplay:10.37,2013-01-11 16:05:00,
2013-01-11 08:10:00,33.1,22.2,30.05,North,0,0.0,0.0,64,0.00,CLR,,0.00,WeatherDisplay:10.37,2013-01-11 16:10:00,
2013-01-11 08:20:00,33.4,21.8,30.05,North,0,0.0,0.0,62,0.00,CLR,,0.00,WeatherDisplay:10.37,2013-01-11 16:20:00,
2013-01-11 08:25:00,33.8,22.2,30.05,North,0,0.0,0.0,62,0.00,CLR,,0.00,WeatherDisplay:10.37,2013-01-11 16:25:00,
2013-01-11 08:35:00,34.2,21.7,30.05,North,0,0.0,0.0,60,0.00,CLR,,0.00,WeatherDisplay:10.37,2013-01-11 16:35:00,
2013-01-11 08:40:00,34.5,22.4,30.05,North,0,0.0,0.0,61,0.00,CLR,,0.00,WeatherDisplay:10.37,2013-01-11 16:40:00,
2013-01-11 08:50:00,35.0,22.5,30.05,North,0,0.0,0.0,60,0.00,CLR,,0.00,WeatherDisplay:10.37,2013-01-11 16:50:00,
2013-01-11 08:55:00,34.7,23.0,30.05,North,0,0.0,0.0,62,0.00,CLR,,0.00,WeatherDisplay:10.37,2013-01-11 16:55:00,
2013-01-11 09:05:00,34.9,22.4,30.05,North,0,0.0,0.0,60,0.00,CLR,,0.00,WeatherDisplay:10.37,2013-01-11 17:05:00,
2013-01-11 09:10:00,34.9,22.4,30.06,North,0,0.0,0.0,60,0.00,CLR,,0.00,WeatherDisplay:10.37,2013-01-11 17:10:00,
2013-01-11 09:20:00,36.1,23.5,30.05,North,0,0.0,0.0,60,0.00,CLR,,0.00,WeatherDisplay:10.37,2013-01-11 17:20:00,
2013-01-11 09:25:00,36.8,24.2,30.04,North,0,0.0,0.0,60,0.00,CLR,,0.00,WeatherDisplay:10.37,2013-01-11 17:25:00,
2013-01-11 09:35:00,36.4,23.8,30.05,North,0,0.0,0.0,60,0.00,CLR,,0.00,WeatherDisplay:10.37,2013-01-11 17:35:00,
2013-01-11 09:40:00,36.6,23.2,30.05,North,0,0.0,0.0,58,0.00,CLR,,0.00,WeatherDisplay:10.37,2013-01-11 17:40:00,
2013-01-11 09:50:00,37.0,22.8,30.05,North,0,0.0,0.0,56,0.00,CLR,,0.00,WeatherDisplay:10.37,2013-01-11 17:50:00,
2013-01-11 09:55:00,37.4,23.5,30.04,North,0,0.0,0.0,57,0.00,CLR,,0.00,WeatherDisplay:10.37,2013-01-11 17:55:00,
2013-01-11 10:05:00,37.9,23.6,30.04,North,0,0.0,0.0,56,0.00,CLR,,0.00,WeatherDisplay:10.37,2013-01-11 18:05:00,
2013-01-11 10:10:00,38.1,22.9,30.04,North,0,0.0,0.0,54,0.00,CLR,,0.00,WeatherDisplay:10.37,2013-01-11 18:10:00,
2013-01-11 10:20:00,39.0,24.2,30.04,North,0,0.0,0.0,55,0.00,CLR,,0.00,WeatherDisplay:10.37,2013-01-11 18:20:00,
2013-01-11 10:25:00,38.7,22.1,30.04,North,0,0.0,0.0,51,0.00,CLR,,0.00,WeatherDisplay:10.37,2013-01-11 18:25:00,
2013-01-11 10:35:00,39.0,23.3,30.04,North,0,0.0,0.0,53,0.00,CLR,,0.00,WeatherDisplay:10.37,2013-01-11 18:35:00,
2013-01-11 10:40:00,38.7,22.1,30.03,North,0,0.0,0.0,51,0.00,CLR,,0.00,WeatherDisplay:10.37,2013-01-11 18:40:00,
2013-01-11 10:50:00,39.4,22.8,30.02,North,0,0.0,0.0,51,0.00,CLR,,0.00,WeatherDisplay:10.37,2013-01-11 18:50:00,
2013-01-11 10:55:00,39.5,22.9,30.02,North,0,0.0,0.0,51,0.00,CLR,,0.00,WeatherDisplay:10.37,2013-01-11 18:55:00,
2013-01-11 11:05:00,39.8,23.1,30.02,North,0,0.0,0.0,51,0.00,CLR,,0.00,WeatherDisplay:10.37,2013-01-11 19:05:00,
2013-01-11 11:10:00,40.0,23.8,30.02,North,0,0.0,0.0,52,0.00,CLR,,0.00,WeatherDisplay:10.37,2013-01-11 19:10:00,
2013-01-11 11:20:00,40.6,24.8,30.01,North,0,0.0,0.0,53,0.00,CLR,,0.00,WeatherDisplay:10.37,2013-01-11 19:20:00,
2013-01-11 11:25:00,40.3,23.1,30.01,North,0,0.0,0.0,50,0.00,CLR,,0.00,WeatherDisplay:10.37,2013-01-11 19:25:00,
2013-01-11 11:35:00,40.6,22.9,30.00,North,0,0.0,0.0,49,0.00,CLR,,0.00,WeatherDisplay:10.37,2013-01-11 19:35:00,
2013-01-11 11:40:00,40.7,23.5,30.00,North,0,0.0,0.0,50,0.00,CLR,,0.00,WeatherDisplay:10.37,2013-01-11 19:40:00,
2013-01-11 11:50:00,40.9,23.2,30.00,North,0,0.0,0.0,49,0.00,CLR,,0.00,WeatherDisplay:10.37,2013-01-11 19:50:00,
2013-01-11 11:55:00,40.8,23.1,29.99,North,0,0.0,0.0,49,0.00,CLR,,0.00,WeatherDisplay:10.37,2013-01-11 19:55:00,
2013-01-11 12:05:00,41.3,23.6,29.99,North,0,0.0,0.0,49,0.00,CLR,,0.00,WeatherDisplay:10.37,2013-01-11 20:05:00,
2013-01-11 12:10:00,41.5,23.8,29.99,North,0,0.0,0.0,49,0.00,CLR,,0.00,WeatherDisplay:10.37,2013-01-11 20:10:00,
2013-01-11 12:20:00,41.7,23.9,29.99,North,0,0.0,0.0,49,0.00,FEW,,0.00,WeatherDisplay:10.37,2013-01-11 20:20:00,
2013-01-11 12:25:00,41.7,22.9,29.99,North,0,0.0,0.0,47,0.00,FEW,,0.00,WeatherDisplay:10.37,2013-01-11 20:25:00,
2013-01-11 12:35:00,41.9,22.6,29.98,North,0,0.0,0.0,46,0.00,FEW,,0.00,WeatherDisplay:10.37,2013-01-11 20:35:00,
2013-01-11 12:40:00,41.9,22.6,29.98,North,0,0.0,0.0,46,0.00,FEW,,0.00,WeatherDisplay:10.37,2013-01-11 20:40:00,
2013-01-11 12:50:00,42.3,22.9,29.98,North,0,0.0,0.0,46,0.00,FEW,,0.00,WeatherDisplay:10.37,2013-01-11 20:50:00,
2013-01-11 12:55:00,42.4,22.0,29.97,North,0,0.0,0.0,44,0.00,FEW,,0.00,WeatherDisplay:10.37,2013-01-11 20:55:00,
2013-01-11 13:05:00,42.1,21.7,29.97,North,0,0.0,0.0,44,0.00,FEW,,0.00,WeatherDisplay:10.37,2013-01-11 21:05:00,
2013-01-11 13:10:00,41.7,21.9,29.97,North,0,0.0,0.0,45,0.00,FEW,,0.00,WeatherDisplay:10.37,2013-01-11 21:10:00,
2013-01-11 13:20:00,42.4,22.0,29.97,North,0,0.0,0.0,44,0.00,FEW,,0.00,WeatherDisplay:10.37,2013-01-11 21:20:00,
2013-01-11 13:25:00,42.3,21.9,29.97,North,0,0.0,0.0,44,0.00,FEW,,0.00,WeatherDisplay:10.37,2013-01-11 21:25:00,
2013-01-11 13:35:00,41.9,21.6,29.97,North,0,0.0,0.0,44,0.00,FEW,,0.00,WeatherDisplay:10.37,2013-01-11 21:35:00,
2013-01-11 13:40:00,42.2,21.8,29.97,North,0,0.0,0.0,44,0.00,FEW,,0.00,WeatherDisplay:10.37,2013-01-11 21:40:00,
2013-01-11 13:50:00,42.6,21.6,29.97,North,0,0.0,0.0,43,0.00,FEW,,0.00,WeatherDisplay:10.37,2013-01-11 21:50:00,
2013-01-11 13:55:00,42.6,21.7,29.97,North,0,0.0,0.0,43,0.00,FEW,,0.00,WeatherDisplay:10.37,2013-01-11 21:55:00,
2013-01-11 14:05:00,42.4,21.5,29.96,North,0,0.0,0.0,43,0.00,FEW,,0.00,WeatherDisplay:10.37,2013-01-11 22:05:00,
2013-01-11 14:10:00,42.1,20.6,29.96,North,0,0.0,0.0,42,0.00,FEW,,0.00,WeatherDisplay:10.37,2013-01-11 22:10:00,
2013-01-11 14:20:00,42.8,20.7,29.96,North,0,0.0,0.0,41,0.00,FEW,,0.00,WeatherDisplay:10.37,2013-01-11 22:20:00,
2013-01-11 14:25:00,42.8,21.3,29.96,North,0,0.0,0.0,42,0.00,FEW,,0.00,WeatherDisplay:10.37,2013-01-11 22:25:00,
2013-01-11 14:35:00,43.0,20.3,29.96,North,0,0.0,0.0,40,0.00,FEW,,0.00,WeatherDisplay:10.37,2013-01-11 22:35:00,
2013-01-11 14:40:00,42.7,20.0,29.96,North,0,0.0,0.0,40,0.00,FEW,,0.00,WeatherDisplay:10.37,2013-01-11 22:40:00,
2013-01-11 14:50:00,42.8,20.1,29.96,North,0,0.0,0.0,40,0.00,FEW,,0.00,WeatherDisplay:10.37,2013-01-11 22:50:00,
2013-01-11 14:55:00,42.6,20.5,29.96,North,0,0.0,0.0,41,0.00,FEW,,0.00,WeatherDisplay:10.37,2013-01-11 22:55:00,
2013-01-11 15:05:00,42.1,19.5,29.96,North,0,0.0,0.0,40,0.00,CLR,,0.00,WeatherDisplay:10.37,2013-01-11 23:05:00,
2013-01-11 15:10:00,42.6,20.0,29.96,North,0,0.0,0.0,40,0.00,CLR,,0.00,WeatherDisplay:10.37,2013-01-11 23:10:00,
2013-01-11 15:20:00,42.6,20.0,29.96,North,0,0.0,0.0,40,0.00,CLR,,0.00,WeatherDisplay:10.37,2013-01-11 23:20:00,
2013-01-11 15:25:00,42.1,19.5,29.96,North,0,0.0,0.0,40,0.00,CLR,,0.00,WeatherDisplay:10.37,2013-01-11 23:25:00,
2013-01-11 15:35:00,42.2,20.2,29.96,North,0,0.0,0.0,41,0.00,CLR,,0.00,WeatherDisplay:10.37,2013-01-11 23:35:00,
2013-01-11 15:40:00,42.3,20.2,29.96,North,0,0.0,0.0,41,0.00,CLR,,0.00,WeatherDisplay:10.37,2013-01-11 23:40:00,
2013-01-11 15:50:00,41.4,19.4,29.95,North,0,0.0,0.0,41,0.00,CLR,,0.00,WeatherDisplay:10.37,2013-01-11 23:50:00,
2013-01-11 15:55:00,41.0,19.6,29.95,North,0,0.0,0.0,42,0.00,CLR,,0.00,WeatherDisplay:10.37,2013-01-11 23:55:00,
2013-01-11 16:05:00,40.5,19.2,29.95,North,0,0.0,0.0,42,0.00,CLR,,0.00,WeatherDisplay:10.37,2013-01-12 00:05:00,
2013-01-11 16:10:00,40.5,19.7,29.95,North,0,0.0,0.0,43,0.00,CLR,,0.00,WeatherDisplay:10.37,2013-01-12 00:10:00,
2013-01-11 16:20:00,40.3,19.0,29.95,North,0,0.0,0.0,42,0.00,CLR,,0.00,WeatherDisplay:10.37,2013-01-12 00:20:00,
2013-01-11 16:25:00,40.5,19.7,29.95,North,0,0.0,0.0,43,0.00,CLR,,0.00,WeatherDisplay:10.37,2013-01-12 00:25:00,
2013-01-11 16:35:00,39.8,19.1,29.95,North,0,0.0,0.0,43,0.00,CLR,,0.00,WeatherDisplay:10.37,2013-01-12 00:35:00,
2013-01-11 16:40:00,39.4,19.3,29.95,North,0,0.0,0.0,44,0.00,CLR,,0.00,WeatherDisplay:10.37,2013-01-12 00:40:00,
2013-01-11 16:50:00,38.9,18.8,29.96,North,0,0.0,0.0,44,0.00,CLR,,0.00,WeatherDisplay:10.37,2013-01-12 00:50:00,
2013-01-11 16:55:00,38.8,19.3,29.95,North,0,0.0,0.0,45,0.00,CLR,,0.00,WeatherDisplay:10.37,2013-01-12 00:55:00,
2013-01-11 17:05:00,38.5,19.0,29.95,North,0,0.0,0.0,45,0.00,BKN,,0.00,WeatherDisplay:10.37,2013-01-12 01:05:00,
2013-01-11 17:10:00,38.3,19.3,29.95,North,0,0.0,0.0,46,0.00,BKN,,0.00,WeatherDisplay:10.37,2013-01-12 01:10:00,
2013-01-11 17:20:00,37.8,18.3,29.95,North,0,0.0,0.0,45,0.00,BKN,,0.00,WeatherDisplay:10.37,2013-01-12 01:20:00,
2013-01-11 17:25:00,37.8,18.3,29.95,North,0,0.0,0.0,45,0.00,BKN,,0.00,WeatherDisplay:10.37,2013-01-12 01:25:00,
2013-01-11 17:35:00,37.8,17.8,29.96,North,0,0.0,0.0,44,0.00,BKN,,0.00,WeatherDisplay:10.37,2013-01-12 01:35:00,
2013-01-11 17:40:00,37.8,17.8,29.96,North,0,0.0,0.0,44,0.00,BKN,,0.00,WeatherDisplay:10.37,2013-01-12 01:40:00,
2013-01-11 17:50:00,37.8,17.8,29.96,North,0,0.0,0.0,44,0.00,BKN,,0.00,WeatherDisplay:10.37,2013-01-12 01:50:00,
2013-01-11 18:05:00,37.6,18.1,29.95,North,0,0.0,0.0,45,0.00,OVC,,0.00,WeatherDisplay:10.37,2013-01-12 02:05:00,
2013-01-11 18:10:00,37.6,18.1,29.95,North,0,0.0,0.0,45,0.00,OVC,,0.00,WeatherDisplay:10.37,2013-01-12 02:10:00,
2013-01-11 18:20:00,37.8,18.3,29.95,North,0,0.0,0.0,45,0.00,OVC,,0.00,WeatherDisplay:10.37,2013-01-12 02:20:00,
2013-01-11 18:25:00,37.8,18.3,29.95,North,0,0.0,0.0,45,0.00,OVC,,0.00,WeatherDisplay:10.37,2013-01-12 02:25:00,
2013-01-11 18:35:00,37.8,18.3,29.95,North,0,0.0,0.0,45,0.00,OVC,,0.00,WeatherDisplay:10.37,2013-01-12 02:35:00,
2013-01-11 18:40:00,37.8,18.3,29.95,North,0,0.0,0.0,45,0.00,OVC,,0.00,WeatherDisplay:10.37,2013-01-12 02:40:00,
2013-01-11 18:50:00,37.8,18.3,29.96,North,0,0.0,0.0,45,0.00,OVC,,0.00,WeatherDisplay:10.37,2013-01-12 02:50:00,
2013-01-11 18:55:00,37.8,18.8,29.96,North,0,0.0,0.0,46,0.00,OVC,,0.00,WeatherDisplay:10.37,2013-01-12 02:55:00,
2013-01-11 19:05:00,37.2,18.8,29.96,North,0,0.0,0.0,47,0.00,OVC,,0.00,WeatherDisplay:10.37,2013-01-12 03:05:00,
2013-01-11 19:10:00,37.2,18.3,29.96,North,0,0.0,0.0,46,0.00,OVC,,0.00,WeatherDisplay:10.37,2013-01-12 03:10:00,
2013-01-11 19:20:00,37.0,19.1,29.96,North,0,0.0,0.0,48,0.00,OVC,,0.00,WeatherDisplay:10.37,2013-01-12 03:20:00,
2013-01-11 19:25:00,37.0,19.6,29.96,North,0,0.0,0.0,49,0.00,OVC,,0.00,WeatherDisplay:10.37,2013-01-12 03:25:00,
2013-01-11 19:35:00,36.5,19.6,29.96,North,0,0.0,0.0,50,0.00,OVC,,0.00,WeatherDisplay:10.37,2013-01-12 03:35:00,
2013-01-11 19:40:00,36.2,19.8,29.96,North,0,0.0,0.0,51,0.00,OVC,,0.00,WeatherDisplay:10.37,2013-01-12 03:40:00,
2013-01-11 19:50:00,35.6,20.1,29.96,North,0,0.0,0.0,53,0.00,OVC,,0.00,WeatherDisplay:10.37,2013-01-12 03:50:00,
2013-01-11 19:55:00,35.4,20.0,29.97,North,0,0.0,0.0,53,0.00,OVC,,0.00,WeatherDisplay:10.37,2013-01-12 03:55:00,
2013-01-11 20:05:00,34.9,20.3,29.97,North,0,0.0,0.0,55,0.00,FEW,,0.00,WeatherDisplay:10.37,2013-01-12 04:05:00,
2013-01-11 20:10:00,34.5,20.4,29.96,North,0,0.0,0.0,56,0.00,FEW,,0.00,WeatherDisplay:10.37,2013-01-12 04:10:00,
2013-01-11 20:20:00,35.1,20.5,29.96,North,0,0.0,0.0,55,0.00,FEW,,0.00,WeatherDisplay:10.37,2013-01-12 04:20:00,
2013-01-11 20:25:00,35.4,20.4,29.96,North,0,0.0,0.0,54,0.00,FEW,,0.00,WeatherDisplay:10.37,2013-01-12 04:25:00,
2013-01-11 20:35:00,35.6,19.7,29.96,North,0,0.0,0.0,52,0.00,FEW,,0.00,WeatherDisplay:10.37,2013-01-12 04:35:00,
2013-01-11 20:40:00,35.4,20.0,29.96,North,0,0.0,0.0,53,0.00,FEW,,0.00,WeatherDisplay:10.37,2013-01-12 04:40:00,
2013-01-11 20:50:00,34.2,20.1,29.96,North,0,0.0,0.0,56,0.00,FEW,,0.00,WeatherDisplay:10.37,2013-01-12 04:50:00,
2013-01-11 20:55:00,33.8,19.8,29.96,North,0,0.0,0.0,56,0.00,FEW,,0.00,WeatherDisplay:10.37,2013-01-12 04:55:00,
2013-01-11 21:05:00,32.4,20.4,29.96,North,0,0.0,0.0,61,0.00,CLR,,0.00,WeatherDisplay:10.37,2013-01-12 05:05:00,
2013-01-11 21:10:00,32.2,20.6,29.96,North,0,0.0,0.0,62,0.00,CLR,,0.00,WeatherDisplay:10.37,2013-01-12 05:10:00,
2013-01-11 21:20:00,31.8,20.3,29.96,North,0,0.0,0.0,62,0.00,CLR,,0.00,WeatherDisplay:10.37,2013-01-12 05:20:00,
2013-01-11 21:25:00,32.2,20.6,29.97,North,0,0.0,0.0,62,0.00,CLR,,0.00,WeatherDisplay:10.37,2013-01-12 05:25:00,
2013-01-11 21:35:00,32.5,20.6,29.97,North,0,0.0,0.0,61,0.00,CLR,,0.00,WeatherDisplay:10.37,2013-01-12 05:35:00,
2013-01-11 21:40:00,32.4,20.8,29.97,North,0,0.0,0.0,62,0.00,CLR,,0.00,WeatherDisplay:10.37,2013-01-12 05:40:00,
2013-01-11 21:50:00,32.0,20.8,29.97,North,0,0.0,0.0,63,0.00,CLR,,0.00,WeatherDisplay:10.37,2013-01-12 05:50:00,
2013-01-11 21:55:00,31.9,20.7,29.97,North,0,0.0,0.0,63,0.00,CLR,,0.00,WeatherDisplay:10.37,2013-01-12 05:55:00,
2013-01-11 22:05:00,32.0,20.8,29.97,North,0,0.0,0.0,63,0.00,CLR,,0.00,WeatherDisplay:10.37,2013-01-12 06:05:00,
2013-01-11 22:10:00,32.0,20.8,29.97,North,0,0.0,0.0,63,0.00,CLR,,0.00,WeatherDisplay:10.37,2013-01-12 06:10:00,
2013-01-11 22:20:00,31.8,20.7,29.97,North,0,0.0,0.0,63,0.00,CLR,,0.00,WeatherDisplay:10.37,2013-01-12 06:20:00,
2013-01-11 22:25:00,31.8,20.6,29.97,North,0,0.0,0.0,63,0.00,CLR,,0.00,WeatherDisplay:10.37,2013-01-12 06:25:00,
2013-01-11 22:35:00,31.1,20.7,29.97,North,0,0.0,0.0,65,0.00,CLR,,0.00,WeatherDisplay:10.37,2013-01-12 06:35:00,
2013-01-11 22:50:00,31.3,21.2,29.97,North,0,0.0,0.0,66,0.00,CLR,,0.00,WeatherDisplay:10.37,2013-01-12 06:50:00,
2013-01-11 22:55:00,31.3,21.6,29.97,North,0,0.0,0.0,67,0.00,CLR,,0.00,WeatherDisplay:10.37,2013-01-12 06:55:00,
2013-01-11 23:05:00,30.6,21.9,29.97,North,0,0.0,0.0,70,0.00,CLR,,0.00,WeatherDisplay:10.37,2013-01-12 07:05:00,
2013-01-11 23:10:00,31.1,21.7,29.97,North,0,0.0,0.0,68,0.00,CLR,,0.00,WeatherDisplay:10.37,2013-01-12 07:10:00,
2013-01-11 23:20:00,31.5,22.8,29.97,North,0,0.0,0.0,70,0.00,CLR,,0.00,WeatherDisplay:10.37,2013-01-12 07:20:00,
2013-01-11 23:25:00,31.3,23.0,29.97,North,0,0.0,0.0,71,0.00,CLR,,0.00,WeatherDisplay:10.37,2013-01-12 07:25:00,
2013-01-11 23:35:00,31.1,23.5,29.96,North,0,0.0,0.0,73,0.00,CLR,,0.00,WeatherDisplay:10.37,2013-01-12 07:35:00,
2013-01-11 23:40:00,31.0,23.4,29.96,North,0,0.0,0.0,73,0.00,CLR,,0.00,WeatherDisplay:10.37,2013-01-12 07:40:00,
2013-01-11 23:50:00,30.6,23.6,29.96,North,0,0.0,0.0,75,0.00,CLR,,0.00,WeatherDisplay:10.37,2013-01-12 07:50:00,
2013-01-11 23:55:00,30.3,23.7,29.96,North,0,0.0,0.0,76,0.00,CLR,,0.00,WeatherDisplay:10.37,2013-01-12 07:55:00,